QPF
0.00 0.00 0.00 0.00 0.00 0.00 0.00 0.00 0.00 0.00 0.00 0.00 0.00 0.00 0.00 0.00 0.00 0.00 0.00 0.00 0.00 0.00 0.00 0.00 0.00 0.00 0.00 0.00 0.00 0.00 0.00 0.00 0.00 0.00 0.00 0.00 0.00 0.00 0.00 0.00 0.00 0.00 0.00 0.00
0.00 0.00 0.00 0.00 0.00 0.00 0.00 0.00 0.00 0.00 0.00 0.00 0.00 0.00 0.00 0.00 0.00 0.00 0.00 0.00 0.00 0.00 0.00 0.00 0.00 0.00 0.00 0.00 0.00 0.00 0.00 0.00 0.00 0.00 0.00 0.00 0.00 0.00 0.00 0.00 0.00 0.00 0.00 0.00
0.00 0.00 0.00 0.00 0.00 0.00 0.00 0.00 0.00 0.00 0.00 0.00 0.00 0.00 0.00 0.00 0.00 0.00 0.00 0.00 0.00 0.00 0.00 0.00 0.00 0.00 0.00 0.00 0.00 0.00 0.00 0.00 0.00 0.00 0.00 0.00 0.00 0.00 0.00 0.00 0.00 0.00 0.00 0.00
0.00 0.00 0.00 0.00 0.00 0.00 0.00 0.00 0.00 0.00 0.00 0.00 0.00 0.00 0.00 0.00 0.00 0.00 0.00 0.00 0.00 0.00 0.00 0.00 0.00 0.00 0.00 0.00 0.00 0.00 0.00 0.00 0.00 0.00 0.00 0.00 0.00 0.00 0.00 0.00 0.00 0.00 0.00 0.00
0.00 0.00 0.00 0.00 0.00 0.00 0.00 0.00 0.00 0.00 0.00 0.00 0.00 0.00 0.00 0.00 0.00 0.00 0.00 0.00 0.00 0.00 0.00 0.00 0.00 0.00 0.00 0.00 0.00 0.00 0.00 0.00 0.00 0.00 0.00 0.00 0.00 0.00 0.00 0.00 0.00 0.00 0.00 0.00
0.00 0.00 0.00 0.00 0.00 0.00 0.00 0.00 0.00 0.00 0.00 0.00 0.00 0.00 0.00 0.00 0.00 0.00 0.00 0.00 0.00 0.00 0.00 0.00 0.00 0.00 0.00 0.00 0.00 0.00 0.00 0.00 0.00 0.00 0.00 0.00 0.00 0.00 0.00 0.00 0.00 0.00 0.00 0.00
0.00 0.00 0.00 0.00 0.00 0.00 0.00 0.00 0.00 0.00 0.00 0.00 0.00 0.00 0.00 0.00 0.00 0.00 0.00 0.00 0.00 0.00 0.00 0.00 0.00 0.00 0.00 0.00 0.00 0.00 0.00 0.00 0.00 0.00 0.00 0.00 0.00 0.00 0.00 0.00 0.00 0.00 0.00 0.00
0.00 0.00 0.00 0.00 0.00 0.00 0.00 0.00 0.00 0.00 0.00 0.00 0.00 0.00 0.00 0.00 0.00 0.00 0.00 0.00 0.00 0.00 0.00 0.00 0.00 0.00 0.00 0.00 0.00 0.00 0.00 0.00 0.00 0.00 0.00 0.00 0.00 0.00 0.00 0.00 0.00 0.00 0.00 0.00
0.00 0.00 0.00 0.00 0.00 0.00 0.00 0.00 0.00 0.00 0.00 0.00 0.00 0.00 0.00 0.00 0.00 0.00 0.00 0.00 0.00 0.00 0.00 0.00 0.00 0.00 0.00 0.00 0.00 0.00 0.00 0.00 0.00 0.00 0.00 0.00 0.00 0.00 0.00 0.00 0.00 0.00 0.00 0.00
0.00 0.00 0.00 0.00 0.00 0.00 0.00 0.00 0.00 0.00 0.00 0.00 0.00 0.00 0.00 0.00 0.00 0.00 0.00 0.00 0.00 0.00 0.00 0.00 0.00 0.00 0.00 0.00 0.00 0.00 0.00 0.00 0.00 0.00 0.00 0.00 0.00 0.00 0.00 0.00 0.00 0.00 0.00 0.00
0.00 0.00 0.00 0.00 0.00 0.00 0.00 0.00 0.00 0.00 0.00 0.00 0.00 0.00 0.00 0.00 0.00 0.00 0.00 0.00 0.00 0.00 0.00 0.00 0.00 0.00 0.00 0.00 0.00 0.00 0.00 0.00 0.00 0.00 0.00 0.00 0.00 0.00 0.00 0.00 0.00 0.00 0.00 0.00
0.00 0.00 0.00 0.00 0.00 0.00 0.00 0.00 0.00 0.00 0.00 0.00 0.00 0.00 0.00 0.00 0.00 0.00 0.00 0.00 0.00 0.00 0.00 0.00 0.00 0.00 0.00 0.00 0.00 0.00 0.00 0.00 0.00 0.00 0.00 0.00 0.00 0.00 0.00 0.00 0.00 0.00 0.00 0.00
0.00 0.00 0.00 0.00 0.00 0.00 0.00 0.00 0.00 0.00 0.00 0.00 0.00 0.00 0.00 0.00 0.00 0.00 0.00 0.00 0.00 0.00 0.00 0.00 0.00 0.00 0.00 0.00 0.00 0.00 0.00 0.00 0.00 0.00 0.00 0.00 0.00 0.00 0.00 0.00 0.00 0.00 0.00 0.00
0.00 0.00 0.00 0.00 0.00 0.00 0.00 0.00 0.00 0.00 0.00 0.00 0.00 0.00 0.00 0.00 0.00 0.00 0.00 0.00 0.00 0.00 0.00 0.00 0.00 0.00 0.00 0.00 0.00 0.00 0.00 0.00 0.00 0.00 0.00 0.00 0.00 0.00 0.00 0.00 0.00 0.00 0.00 0.00
0.00 0.00 0.00 0.00 0.00 0.00 0.00 0.00 0.00 0.00 0.00 0.00 0.00 0.00 0.00 0.00 0.00 0.00 0.00 0.00 0.00 0.00 0.00 0.00 0.00 0.00 0.00 0.00 0.00 0.00 0.00 0.00 0.00 0.00 0.00 0.00 0.00 0.00 0.00 0.00 0.00 0.00 0.00 0.00
0.00 0.00 0.00 0.00 0.00 0.00 0.00 0.00 0.00 0.00 0.00 0.00 0.00 0.00 0.00 0.00 0.00 0.00 0.00 0.00 0.00 0.00 0.00 0.00 0.00 0.00 0.00 0.00 0.00 0.00 0.00 0.00 0.00 0.00 0.00 0.00 0.00 0.00 0.00 0.00 0.00 0.00 0.00 0.00
0.00 0.00 0.00 0.00 0.00 0.00 0.00 0.00 0.00 0.00 0.00 0.00 0.00 0.00 0.00 0.00 0.00 0.00 0.00 0.00 0.00 0.00 0.00 0.00 0.00 0.00 0.00 0.00 0.00 0.00 0.00 0.00 0.00 0.00 0.00 0.00 0.00 0.00 0.00 0.00 0.00 0.00 0.00 0.00
0.00 0.00 0.00 0.00 0.00 0.00 0.00 0.00 0.00 0.00 0.00 0.00 0.00 0.00 0.00 0.00 0.00 0.00 0.00 0.00 0.00 0.00 0.00 0.00 0.00 0.00 0.00 0.00 0.00 0.00 0.00 0.00 0.00 0.00 0.00 0.00 0.00 0.00 0.00 0.00 0.00 0.00 0.00 0.00
0.00 0.00 0.00 0.00 0.00 0.00 0.00 0.00 0.00 0.00 0.00 0.00 0.00 0.00 0.00 0.00 0.00 0.00 0.00 0.00 0.00 0.00 0.00 0.00 0.00 0.00 0.00 0.00 0.00 0.00 0.00 0.00 0.00 0.00 0.00 0.00 0.00 0.00 0.00 0.00 0.00 0.00 0.00 0.00
0.00 0.00 0.00 0.00 0.00 0.00 0.00 0.00 0.00 0.00 0.00 0.00 0.00 0.00 0.00 0.00 0.00 0.00 0.00 0.00 0.00 0.00 0.00 0.00 0.00 0.00 0.00 0.00 0.00 0.00 0.00 0.00 0.00 0.00 0.00 0.00 0.00 0.00 0.00 0.00 0.00 0.00 0.00 0.00
0.00 0.00 0.00 0.00 0.00 0.00 0.00 0.00 0.00 0.00 0.00 0.00 0.00 0.00 0.00 0.00 0.00 0.00 0.00 0.00 0.00 0.00 0.00 0.00 0.00 0.00 0.00 0.00 0.00 0.00 0.00 0.00 0.00 0.00 0.00 0.00 0.00 0.00 0.00 0.00 0.00 0.00 0.00 0.00
0.00 0.00 0.00 0.00 0.00 0.00 0.00 0.00 0.00 0.00 0.00 0.00 0.00 0.00 0.00 0.00 0.00 0.00 0.00 0.00 0.00 0.00 0.00 0.00 0.00 0.00 0.00 0.00 0.00 0.00 0.00 0.00 0.00 0.00 0.00 0.00 0.00 0.00 0.00 0.00 0.00 0.00 0.00 0.00
0.00 0.00 0.00 0.00 0.00 0.00 0.00 0.00 0.00 0.00 0.00 0.00 0.00 0.00 0.00 0.00 0.00 0.00 0.00 0.00 0.00 0.00 0.00 0.00 0.00 0.00 0.00 0.00 0.00 0.00 0.00 0.00 0.00 0.00 0.00 0.00 0.00 0.00 0.00 0.00 0.00 0.00 0.00 0.00
0.00 0.00 0.00 0.00 0.00 0.00 0.00 0.00 0.00 0.00 0.00 0.00 0.00 0.00 0.00 0.00 0.00 0.00 0.00 0.00 0.00 0.00 0.00 0.00 0.00 0.00 0.00 0.00 0.00 0.00 0.00 0.00 0.00 0.00 0.00 0.00 0.00 0.00 0.00 0.00 0.00 0.00 0.00 0.00
0.00 0.00 0.00 0.00 0.00 0.00 0.00 0.00 0.00 0.00 0.00 0.00 0.00 0.00 0.00 0.00 0.00 0.00 0.00 0.00 0.00 0.00 0.00 0.00 0.00 0.00 0.00 0.00 0.00 0.00 0.00 0.00 0.00 0.00 0.00 0.00 0.00 0.00 0.00 0.00 0.00 0.00 0.00 0.00
0.00 0.00 0.00 0.00 0.00 0.00 0.00 0.00 0.00 0.00 0.00 0.00 0.00 0.00 0.00 0.00 0.00 0.00 0.00 0.00 0.00 0.00 0.00 0.00 0.00 0.00 0.00 0.00 0.00 0.00 0.00 0.00 0.00 0.00 0.00 0.00 0.00 0.00 0.00 0.00 0.00 0.00 0.00 0.00
MSLP
1018.50 1018.10 1017.17 1016.74 1016.95 1017.15 1016.99 1016.99 1016.74 1017.16 1017.71 1017.79 1017.35 1017.32 1018.03 1019.55 1020.64 1021.53 1022.46 1023.28 1023.98 1024.78 1025.52 1025.83 1026.05 1026.00 1025.80 1025.58 1025.30 1025.32 1025.16 1025.17 1024.69 1024.82 1024.97 1025.63 1026.01 1026.77 1027.22 1027.43 1027.37 1027.20 1027.03 1026.85
1018.67 1017.47 1016.83 1017.46 1017.75 1017.73 1017.69 1017.44 1017.12 1017.62 1018.10 1018.19 1017.55 1017.32 1017.60 1019.23 1019.88 1020.84 1021.96 1022.92 1023.76 1024.73 1025.43 1025.90 1026.00 1025.98 1025.88 1025.72 1025.55 1025.51 1025.54 1025.60 1025.55 1025.66 1025.78 1026.35 1026.97 1027.74 1028.08 1028.40 1028.38 1028.18 1028.12 1028.05
1017.18 1017.13 1017.18 1017.64 1018.08 1018.17 1017.99 1017.72 1017.47 1017.89 1018.41 1018.49 1018.16 1016.96 1017.01 1018.71 1020.10 1021.29 1022.04 1022.68 1023.53 1023.98 1024.56 1025.20 1025.88 1026.20 1026.25 1026.26 1026.08 1025.77 1025.66 1025.46 1025.24 1025.75 1026.52 1027.13 1027.30 1027.78 1028.38 1028.76 1028.99 1029.16 1029.11 1029.04
1017.63 1017.55 1017.68 1017.87 1017.90 1018.00 1017.91 1017.93 1018.27 1018.53 1018.80 1018.20 1018.40 1016.22 1016.37 1017.60 1019.31 1020.93 1022.00 1022.76 1023.53 1024.52 1025.26 1025.88 1026.06 1026.28 1026.86 1027.03 1026.92 1026.82 1026.71 1026.79 1026.62 1026.60 1026.46 1026.32 1027.33 1028.21 1029.10 1029.33 1029.63 1029.72 1029.70 1029.74
1016.98 1017.54 1017.79 1017.65 1017.34 1018.10 1018.17 1018.48 1018.75 1018.96 1018.84 1018.90 1018.60 1018.30 1015.92 1017.59 1018.29 1019.78 1021.23 1022.42 1023.31 1024.23 1025.04 1025.80 1026.43 1026.63 1027.00 1027.14 1027.20 1027.11 1027.08 1027.28 1027.29 1027.21 1027.09 1027.23 1027.70 1028.53 1029.23 1029.82 1030.26 1030.43 1030.63 1030.73
1017.46 1017.88 1017.89 1017.56 1018.20 1018.37 1019.02 1019.22 1019.55 1019.74 1019.51 1018.44 1017.73 1017.93 1015.28 1016.31 1016.65 1018.29 1020.53 1021.70 1022.75 1023.88 1024.78 1025.63 1026.64 1027.14 1027.40 1027.70 1027.65 1027.42 1027.48 1027.65 1027.54 1027.84 1027.90 1027.99 1028.44 1029.05 1029.54 1029.80 1030.34 1030.77 1031.07 1031.17
1017.57 1017.48 1017.60 1017.83 1018.40 1019.11 1018.65 1018.81 1019.21 1019.49 1019.46 1017.71 1017.74 1017.70 1014.96 1015.66 1016.95 1017.89 1019.20 1021.00 1022.52 1023.82 1024.90 1025.60 1026.47 1027.01 1027.43 1027.62 1027.76 1027.83 1027.84 1028.12 1028.31 1028.31 1028.56 1028.63 1028.95 1029.23 1029.80 1029.99 1030.28 1030.60 1030.93 1031.28
1016.46 1016.79 1016.76 1016.89 1016.54 1017.14 1017.93 1017.52 1017.59 1017.86 1018.28 1017.56 1018.16 1016.48 1015.19 1016.26 1017.25 1018.50 1019.08 1020.54 1022.03 1023.15 1024.23 1024.95 1025.60 1026.31 1026.94 1027.40 1027.45 1027.77 1028.08 1028.32 1028.52 1029.03 1028.99 1029.44 1029.44 1029.76 1030.19 1030.30 1030.56 1030.96 1031.26 1031.94
1015.30 1015.84 1016.19 1016.47 1016.57 1016.77 1017.90 1017.72 1017.22 1017.94 1018.99 1017.99 1015.97 1015.37 1015.32 1016.41 1017.45 1018.61 1019.60 1020.71 1021.62 1022.60 1023.70 1024.52 1025.32 1026.06 1026.74 1027.20 1027.49 1027.78 1027.95 1028.58 1029.04 1029.00 1029.16 1029.60 1029.84 1029.96 1030.30 1030.78 1031.08 1031.29 1031.62 1032.26
1014.41 1015.29 1016.25 1016.88 1016.94 1017.10 1016.81 1016.59 1017.59 1017.59 1017.24 1016.18 1014.52 1014.35 1013.74 1015.34 1016.29 1017.95 1019.26 1019.96 1020.99 1022.26 1023.30 1024.10 1024.81 1025.58 1026.40 1027.06 1027.49 1027.63 1028.04 1028.26 1028.58 1028.96 1029.27 1029.75 1030.08 1030.50 1030.72 1031.03 1031.22 1031.54 1031.76 1032.24
1014.55 1015.15 1016.52 1016.92 1016.36 1015.58 1016.77 1016.36 1016.13 1015.80 1015.48 1014.71 1013.88 1012.55 1012.55 1013.28 1014.70 1016.20 1017.67 1018.86 1019.96 1021.15 1022.15 1023.02 1024.04 1025.14 1026.14 1026.78 1027.13 1027.51 1027.68 1028.40 1028.54 1028.72 1029.34 1029.56 1030.26 1030.75 1030.83 1031.17 1031.46 1031.35 1031.85 1032.21
1013.72 1014.36 1015.24 1015.39 1015.54 1015.82 1015.15 1014.72 1014.68 1014.31 1014.84 1014.76 1014.34 1012.22 1012.84 1013.65 1014.41 1015.69 1016.81 1018.12 1019.27 1020.30 1021.25 1022.32 1023.43 1024.57 1025.37 1026.16 1026.70 1027.12 1027.60 1028.01 1028.28 1028.59 1028.93 1029.37 1029.90 1030.47 1030.81 1031.20 1031.65 1031.83 1031.96 1032.29
1012.89 1013.81 1014.80 1015.01 1015.87 1015.78 1014.99 1014.55 1013.84 1013.60 1013.99 1012.72 1013.51 1011.84 1013.04 1013.87 1014.80 1015.59 1016.47 1017.67 1018.75 1019.74 1020.64 1021.51 1022.72 1023.61 1024.29 1025.16 1025.98 1026.36 1026.76 1027.36 1027.91 1028.31 1028.72 1029.51 1030.01 1030.44 1030.64 1031.15 1031.63 1031.98 1032.02 1032.15
1011.39 1012.51 1011.97 1010.92 1011.37 1012.22 1013.65 1013.36 1013.47 1013.17 1012.58 1011.31 1010.05 1011.43 1012.99 1013.63 1014.29 1015.06 1016.08 1017.04 1017.98 1018.96 1019.80 1020.82 1021.69 1022.39 1023.29 1024.39 1025.14 1025.71 1026.07 1026.89 1027.45 1027.97 1028.50 1029.01 1029.60 1030.14 1030.63 1031.14 1031.45 1031.84 1031.95 1031.91
1011.93 1011.68 1011.86 1011.17 1011.27 1011.68 1011.60 1011.63 1012.31 1011.74 1009.89 1010.57 1009.09 1010.42 1011.82 1012.84 1013.71 1014.06 1014.90 1016.32 1017.52 1018.26 1019.15 1019.83 1020.52 1021.40 1022.53 1023.48 1024.36 1025.04 1025.68 1026.36 1026.82 1027.40 1027.83 1028.45 1029.34 1029.90 1030.54 1031.15 1031.67 1031.90 1031.77 1031.93
1012.09 1011.47 1011.76 1011.10 1011.16 1011.62 1011.70 1011.27 1010.57 1010.43 1010.03 1009.83 1010.25 1010.31 1011.21 1012.20 1013.76 1014.32 1015.04 1016.18 1016.85 1017.36 1018.15 1019.07 1019.76 1020.95 1021.99 1022.74 1023.35 1024.07 1024.71 1025.38 1026.14 1026.70 1027.33 1028.13 1029.11 1029.88 1030.66 1031.15 1031.44 1031.81 1032.00 1032.15
1011.94 1012.16 1012.30 1011.00 1011.77 1012.60 1012.32 1008.71 1010.12 1009.82 1009.60 1009.93 1010.31 1010.28 1011.70 1013.08 1013.56 1013.98 1014.65 1015.68 1016.17 1016.85 1017.58 1018.52 1019.21 1020.38 1021.34 1021.81 1022.43 1023.16 1023.93 1024.74 1025.40 1026.18 1027.04 1027.76 1028.72 1029.65 1030.42 1031.04 1031.36 1031.34 1031.52 1032.01
1011.26 1012.02 1012.50 1011.88 1012.81 1011.85 1009.39 1009.82 1009.25 1009.67 1010.13 1010.37 1010.86 1011.54 1012.12 1013.12 1013.77 1014.28 1014.64 1015.43 1016.19 1017.03 1017.76 1018.46 1018.92 1019.77 1020.69 1021.43 1022.14 1022.69 1023.42 1024.13 1024.96 1025.88 1026.63 1027.61 1028.27 1029.20 1030.08 1030.76 1030.97 1031.16 1031.46 1031.84
1011.81 1012.17 1012.58 1012.64 1012.20 1010.89 1010.93 1010.72 1010.40 1010.20 1009.85 1010.72 1011.38 1012.39 1013.56 1014.17 1014.46 1014.75 1015.36 1015.72 1016.06 1016.79 1017.48 1018.16 1018.73 1019.57 1020.43 1021.21 1021.91 1022.62 1023.36 1024.11 1024.88 1025.41 1025.94 1026.78 1027.71 1028.55 1029.35 1030.09 1030.53 1030.93 1031.20 1031.61
1012.59 1012.21 1012.17 1012.56 1011.83 1010.99 1009.94 1010.30 1010.45 1010.33 1010.76 1010.94 1011.53 1013.22 1014.25 1014.63 1014.88 1014.46 1015.09 1015.85 1016.68 1017.32 1017.93 1018.50 1019.18 1019.90 1020.44 1021.05 1021.78 1022.41 1023.07 1023.94 1024.43 1024.73 1025.25 1026.19 1027.12 1028.04 1028.93 1029.70 1030.16 1030.63 1031.04 1031.25
1012.75 1012.48 1011.55 1011.61 1011.24 1010.76 1010.35 1010.88 1011.21 1011.58 1011.35 1011.35 1012.24 1013.30 1014.25 1014.47 1014.25 1014.66 1015.42 1016.43 1017.04 1017.58 1018.23 1018.96 1019.52 1019.89 1020.32 1021.00 1021.65 1022.39 1023.00 1023.53 1023.40 1024.49 1025.17 1026.08 1026.66 1027.45 1028.50 1029.32 1029.86 1030.36 1030.69 1030.92
1011.42 1011.54 1011.44 1011.75 1011.43 1010.87 1010.63 1011.66 1011.50 1011.19 1011.60 1011.93 1012.71 1013.28 1013.94 1014.36 1014.75 1015.19 1015.81 1016.58 1017.33 1017.93 1018.56 1019.00 1019.55 1019.86 1020.30 1020.95 1021.70 1022.33 1022.74 1022.46 1023.66 1024.47 1025.06 1025.95 1026.86 1027.43 1028.38 1029.03 1029.62 1030.03 1030.25 1030.38
1011.61 1010.52 1010.65 1010.96 1010.58 1010.59 1010.86 1011.13 1011.33 1011.57 1011.91 1012.62 1012.85 1013.40 1013.97 1014.61 1015.17 1015.73 1016.47 1017.13 1017.82 1018.28 1018.70 1019.17 1019.64 1019.97 1020.53 1021.04 1021.50 1021.95 1021.84 1022.89 1023.83 1024.59 1025.06 1025.89 1026.84 1027.61 1028.28 1028.91 1029.23 1029.43 1029.65 1029.55
1010.72 1010.50 1010.76 1011.04 1010.88 1011.06 1011.35 1011.54 1011.65 1011.88 1011.96 1012.41 1012.83 1013.40 1013.96 1014.40 1015.14 1015.92 1016.55 1017.10 1017.77 1018.34 1018.77 1019.28 1019.92 1020.28 1020.59 1020.88 1021.29 1021.60 1022.31 1023.07 1023.83 1024.42 1025.30 1026.24 1026.97 1027.63 1028.16 1028.38 1028.54 1028.62 1028.62 1028.66
1010.00 1010.19 1010.47 1010.85 1011.20 1011.56 1011.75 1011.89 1011.76 1012.08 1012.45 1012.85 1013.25 1013.66 1014.03 1014.64 1015.37 1015.98 1016.74 1017.21 1017.76 1018.34 1018.86 1019.44 1019.55 1019.79 1019.80 1020.53 1021.20 1021.88 1022.63 1023.36 1023.87 1024.45 1025.29 1026.10 1026.66 1027.18 1027.32 1027.58 1027.56 1027.63 1027.60 1027.72
1009.63 1009.78 1009.92 1009.77 1009.99 1010.30 1010.59 1010.56 1011.48 1011.99 1012.25 1012.79 1013.38 1014.09 1014.55 1014.84 1015.35 1016.01 1016.79 1017.23 1017.78 1018.27 1018.61 1019.12 1019.64 1019.94 1019.79 1020.52 1021.41 1022.13 1022.76 1023.21 1023.66 1024.50 1025.20 1025.63 1026.04 1026.37 1026.57 1026.75 1026.89 1026.96 1026.86 1026.90
Thickness
5658 5662 5666 5673 5671 5668 5667 5664 5668 5666 5660 5658 5668 5672 5670 5655 5648 5643 5639 5635 5630 5623 5615 5613 5611 5612 5613 5614 5616 5614 5614 5610 5613 5613 5611 5603 5599 5590 5584 5581 5579 5577 5577 5576
5649 5656 5672 5658 5653 5652 5651 5653 5661 5656 5648 5647 5658 5659 5670 5649 5652 5648 5639 5632 5626 5616 5610 5605 5605 5606 5606 5607 5608 5606 5602 5599 5597 5595 5593 5587 5580 5572 5566 5563 5560 5558 5556 5554
5657 5660 5656 5651 5640 5639 5642 5644 5654 5647 5637 5634 5637 5652 5663 5646 5634 5629 5629 5627 5621 5620 5614 5607 5599 5596 5596 5595 5595 5598 5597 5598 5598 5591 5580 5573 5570 5562 5554 5547 5542 5538 5534 5532
5643 5647 5643 5641 5641 5643 5637 5641 5636 5630 5626 5630 5629 5644 5659 5655 5638 5624 5619 5616 5612 5603 5596 5591 5591 5589 5582 5581 5581 5580 5579 5575 5575 5573 5573 5574 5561 5549 5537 5533 5527 5523 5519 5515
5647 5632 5633 5636 5646 5634 5634 5626 5624 5620 5619 5611 5617 5618 5659 5635 5641 5629 5619 5612 5606 5598 5591 5583 5578 5576 5573 5571 5569 5568 5566 5562 5559 5556 5555 5551 5545 5535 5525 5516 5509 5504 5498 5493
5630 5624 5628 5637 5622 5625 5610 5610 5606 5600 5601 5601 5623 5619 5651 5651 5654 5642 5619 5610 5601 5590 5582 5576 5566 5561 5559 5556 5555 5555 5553 5549 5546 5539 5535 5532 5526 5517 5509 5504 5494 5486 5479 5474
5615 5619 5619 5618 5613 5604 5611 5611 5598 5589 5586 5605 5598 5604 5650 5652 5635 5637 5623 5606 5593 5581 5572 5566 5558 5553 5548 5545 5542 5540 5537 5531 5526 5524 5518 5515 5508 5502 5492 5486 5480 5474 5466 5459
5611 5612 5615 5619 5628 5616 5604 5615 5609 5592 5594 5611 5573 5601 5638 5624 5616 5610 5616 5605 5589 5580 5570 5563 5557 5549 5541 5536 5535 5528 5521 5515 5510 5502 5499 5491 5488 5481 5472 5466 5461 5453 5445 5435
5607 5606 5603 5605 5608 5613 5593 5591 5609 5579 5530 5580 5614 5616 5629 5605 5604 5595 5594 5588 5582 5573 5562 5553 5545 5536 5527 5521 5516 5512 5507 5498 5491 5488 5483 5475 5470 5464 5457 5448 5439 5432 5425 5415
5611 5601 5588 5587 5594 5590 5597 5603 5581 5581 5579 5587 5614 5614 5640 5612 5611 5591 5581 5580 5574 5561 5550 5542 5534 5524 5516 5508 5501 5498 5492 5487 5481 5474 5467 5458 5452 5442 5435 5427 5420 5412 5405 5395
5596 5592 5577 5576 5586 5602 5583 5587 5588 5596 5593 5600 5611 5628 5632 5631 5618 5602 5591 5579 5571 5556 5545 5535 5524 5513 5502 5495 5489 5484 5481 5470 5466 5460 5451 5443 5432 5422 5415 5406 5399 5395 5385 5376
5595 5582 5572 5580 5578 5574 5593 5597 5594 5596 5580 5583 5584 5622 5602 5605 5605 5597 5588 5571 5561 5550 5540 5527 5516 5503 5494 5483 5476 5471 5464 5457 5451 5445 5436 5425 5414 5403 5394 5385 5376 5370 5363 5356
5588 5572 5566 5566 5563 5557 5572 5581 5594 5594 5573 5591 5585 5615 5584 5582 5581 5578 5576 5560 5547 5537 5528 5519 5507 5496 5486 5476 5466 5460 5454 5444 5436 5429 5420 5406 5394 5383 5375 5365 5357 5349 5344 5337
5592 5573 5585 5603 5609 5602 5577 5582 5579 5585 5583 5600 5606 5611 5581 5579 5575 5569 5555 5548 5539 5526 5519 5510 5500 5491 5480 5467 5457 5449 5442 5431 5422 5413 5402 5390 5378 5367 5357 5345 5339 5331 5324 5319
5573 5569 5579 5594 5593 5583 5587 5587 5575 5578 5604 5588 5618 5595 5587 5577 5569 5569 5559 5540 5526 5518 5511 5505 5495 5484 5471 5457 5446 5436 5426 5416 5407 5398 5388 5375 5361 5351 5338 5327 5318 5312 5306 5299
5545 5565 5568 5569 5583 5570 5565 5574 5577 5577 5584 5586 5587 5585 5584 5577 5552 5545 5534 5521 5515 5514 5505 5493 5484 5470 5456 5445 5437 5426 5417 5405 5394 5384 5372 5358 5345 5331 5319 5309 5301 5294 5287 5278
5545 5552 5534 5561 5559 5532 5524 5582 5569 5572 5577 5577 5567 5582 5555 5542 5538 5538 5529 5514 5512 5504 5493 5481 5472 5457 5445 5437 5428 5417 5402 5390 5379 5368 5355 5342 5328 5315 5303 5292 5283 5277 5269 5259
5539 5536 5530 5542 5510 5529 5562 5539 5568 5560 5555 5549 5539 5530 5534 5530 5522 5516 5510 5504 5495 5481 5473 5466 5458 5445 5432 5421 5410 5401 5389 5377 5362 5351 5339 5325 5314 5301 5288 5276 5267 5259 5250 5240
5506 5510 5490 5503 5508 5529 5504 5516 5529 5533 5551 5528 5535 5517 5502 5487 5492 5500 5483 5480 5480 5470 5460 5451 5441 5429 5415 5404 5394 5382 5369 5358 5347 5339 5327 5314 5301 5289 5276 5263 5252 5242 5233 5224
5479 5493 5511 5477 5512 5529 5533 5506 5505 5520 5529 5501 5510 5485 5470 5475 5486 5507 5468 5461 5453 5444 5436 5427 5417 5406 5397 5387 5377 5365 5355 5342 5335 5326 5315 5301 5288 5274 5260 5247 5237 5227 5217 5211
5473 5471 5501 5484 5499 5498 5499 5484 5484 5494 5516 5484 5483 5469 5457 5465 5477 5464 5450 5439 5433 5425 5415 5404 5396 5389 5382 5371 5359 5350 5339 5330 5325 5310 5298 5285 5273 5259 5246 5233 5222 5213 5205 5199
5488 5481 5481 5471 5482 5495 5471 5462 5487 5486 5459 5464 5460 5456 5452 5449 5441 5437 5432 5424 5414 5405 5395 5387 5380 5373 5365 5353 5342 5334 5325 5320 5303 5291 5281 5268 5254 5242 5229 5218 5208 5200 5193 5187
5465 5480 5478 5479 5486 5452 5458 5456 5452 5448 5447 5445 5450 5441 5438 5430 5423 5417 5409 5401 5392 5384 5376 5368 5364 5357 5346 5335 5327 5320 5314 5298 5284 5272 5261 5249 5236 5225 5214 5204 5196 5190 5183 5178
5437 5440 5451 5450 5443 5436 5435 5427 5431 5430 5436 5434 5436 5430 5423 5418 5410 5401 5393 5384 5375 5364 5356 5349 5342 5335 5328 5317 5308 5304 5292 5278 5266 5256 5243 5230 5219 5209 5199 5193 5186 5180 5175 5170
5442 5434 5426 5423 5415 5411 5408 5408 5412 5412 5414 5411 5408 5409 5405 5398 5389 5382 5369 5362 5356 5348 5337 5329 5325 5321 5318 5302 5294 5284 5272 5260 5251 5241 5229 5218 5207 5197 5191 5184 5178 5172 5166 5160
5424 5421 5423 5420 5413 5414 5408 5409 5396 5396 5396 5391 5390 5383 5377 5376 5371 5360 5352 5345 5337 5331 5323 5313 5306 5300 5300 5288 5276 5264 5254 5246 5238 5226 5215 5207 5198 5190 5182 5176 5169 5161 5155 5149